Regional Weather Roundup
Issued by NWS Green Bay, WI

Home | Current Version | Previous Version | Text Only | Print | Product List | Glossary On
Versions: 1 2 3 4 5 6 7 8 9 10 11 12 13 14 15 16 17 18 19 20 21 22 23 24 25 26 27 28 29 30 31 32 33 34 35 36 37 38 39 40 41 42 43 44 45 46 47 48 49 50
000
ASUS43 KGRB 180410
RWRGRB

NORTH-CENTRAL AND NORTHEAST WISCONSIN REGIONAL WEATHER ROUNDUP
NATIONAL WEATHER SERVICE GREEN BAY WI
1100 PM CDT THU APR 17 2014

WIZ005-009-010>012-018-019-180500-
NORTH CENTRAL WISCONSIN

CITY           SKY/WX    TMP DP  RH WIND       PRES   REMARKS
IRONWOOD       CLOUDY    32  25  74 W5        30.25S
MANITOWISH WTR CLOUDY    31  28  89 NW3       30.26S
ARBOR VITAE    CLOUDY    33  29  86 N5        30.27R
EAGLE RIVER    CLOUDY    32  25  75 NW9       30.26R
LAND O LAKES   CLOUDY    32  27  81 NW5       30.26S
RHINELANDER    CLOUDY    32  25  75 W3        30.27R
PHILLIPS       CLOUDY    32  26  81 CALM      30.28R
ANTIGO         CLOUDY    32  28  83 NW9       30.27S
TOMAHAWK       CLOUDY    32  27  81 CALM      30.28S
MERRILL        CLOUDY    33  27  79 CALM      30.29R
$$

WIZ013-073-180500-
NORTHEAST WISCONSIN

CITY           SKY/WX    TMP DP  RH WIND       PRES   REMARKS
IRON MOUNTAIN  CLOUDY    34  26  72 NW6       30.25R
MARINETTE      CLOUDY    37  32  81 CALM      30.26R
OCONTO         CLOUDY    37  33  83 CALM      30.28R
$$

WIZ017-030-035>037-045-180500-
CENTRAL WISCONSIN

CITY           SKY/WX    TMP DP  RH WIND       PRES   REMARKS
MEDFORD        CLOUDY    32  26  77 N5        30.29R
WAUSAU         CLOUDY    34  27  75 N7        30.27S
MOSINEE        CLOUDY    34  30  86 NW7       30.29S
MARSHFIELD     CLOUDY    34  27  75 NW9       30.29R
WISC RAPIDS    CLOUDY    37  28  70 NW7       30.31R
STEVENS POINT  CLOUDY    34  27  75 NW3       30.30R
WAUPACA        CLOUDY    39  28  65 NW8       30.29S
SHAWANO        CLOUDY    40  31  69 NW7       30.29R
CLINTONVILLE   CLOUDY    37  32  81 NW7       30.28S
$$

WIZ038-039-048-051-180500-
FOX VALLEY

CITY           SKY/WX    TMP DP  RH WIND       PRES   REMARKS
NWS GREEN BAY  MOCLDY    38  34  85 W6        30.28R
APPLETON       MOCLDY    36  30  80 W5        30.28R
OSHKOSH        CLEAR     37  30  75 NW5       30.27S
FOND DU LAC    CLEAR     38  32  79 N3        30.28R
$$

WIZ022-050-052-180500-
EAST CENTRAL WISCONSIN

CITY           SKY/WX    TMP DP  RH WIND       PRES   REMARKS
STURGEON BAY   CLOUDY    37  32  81 CALM      30.27S
MANITOWOC      CLOUDY    43  36  76 N5        30.27R
SHEBOYGAN      MOCLDY    41  35  79 NW5       30.26S
$$

LMZ563-521-522-541>543-180500-
LAKESHORE

STATION/POSITION TIME  TEMP    WIND        PRES    VSBY  WAVE
                       AIR SEA DIR/SP/G                  HT/PER
                 (UTC) (F)     (DEG/KT/KT) (MB)    (MI)  (FT/S)
SHEBOYGAN LKSHOR 0400   41      10/ 11/ 13 1025.5R
KEWAUNEE LKSHORE 0400   38      50/  1/  3 1025.5S
NORTHPORT PIER   0400   36     240/  3/  3 1024.7R
SISTER BAY LKSHO 0400   35        CALM       N/A
MENOMINEE LKSHOR 0400   40     290/  4/  7 1025.4R
$$



USA.gov is the U.S. government's official web portal to all federal, state and local government web resources and services.